Вернуться в каталог

GHGSAT-C4

АктивенНаукаSSO
NORAD 52746·PAYLOAD·🇨🇦 Canada

Запущен May 25, 2022 с Cape Canaveral Space Force Station

Loading…

Ближайшие Пролёты (ближайшие 24 часа)

TLE

СвежийSource: Space-Track

Эпоха: Sep 14, 2026, 13:51 UTC

1 52746U 22057Q   26257.57733748  .00005756  00000-0  17027-3 0  9999
2 52746  97.6653  45.4603 0006933 138.0508 222.1267 15.35312509239257

Отслеживайте GHGSAT-C4 в реальном времени с AllMySat

Download on the App Store